Home   Weather   Rotterdam   Past weeks

Flag for Netherlands Past Weather in Rotterdam, Netherlands — Yesterday and Last 2 Weeks

Now
48 °F

Passing clouds.


Feels Like: 42 °F
Forecast: 42 / 51 °F
Wind: 15 mph from Southwest

Location: Amsterdam Schiphol Airport

Current Time: Feb 22, 2017 at 9:10:40 pm

Latest Report: Feb 22, 2017 at 8:25 pm


Visibility: N/A

Pressure: 29.65 "Hg

Humidity: 87%

Dew Point: 45 °F

Location of RotterdamLocation

Past Weather in Rotterdam — Graph

°F

Rotterdam Temperature Yesterday

Maximum temperature yesterday: 52 °F (at 2:25 pm)
Minimum temperature yesterday: 45 °F (at 7:25 am)
Average temperature yesterday: 48 °F

High & Low Weather Summary for the Past Weeks

 TemperatureHumidityPressure
High55 °F (Feb 15, 3:25 pm)100% (Feb 7, 7:55 pm)30.48 "Hg (Feb 7, 7:55 pm)
Low25 °F (Feb 10, 5:25 am)54% (Feb 14, 3:25 pm)29.65 "Hg (Feb 22, 5:25 am)
Average39 °F86%30.21 "Hg
* Reported Feb 7 7:25 pm — Feb 22 7:55 pm, Rotterdam, Weather by CustomWeather, © 2017

Note: Actual official high and low records may vary slightly from our data, if they occured in-between our weather recording intervals... More about our weather records

Advertising

Rotterdam Weather History for the Previous 24 Hours

Scroll right to see more
 ConditionsComfort  
Time TempWeatherWind HumidityBarometerVisibility
7:55 pm
Wed, Feb 22
48 °FPassing clouds.16 mph87%29.65 "HgN/A
7:25 pm48 °FPassing clouds.17 mph87%29.65 "HgN/A
6:55 pm48 °FPassing clouds.18 mph87%29.65 "HgN/A
6:25 pm48 °FLight rain. Passing clouds.18 mph87%29.65 "HgN/A
5:55 pm48 °FPassing clouds.20 mph87%29.65 "HgN/A
5:25 pm48 °FPassing clouds.18 mph87%29.65 "HgN/A
4:55 pm48 °FLight rain. Passing clouds.17 mph94%29.65 "HgN/A
4:25 pm48 °FLight rain. Broken clouds.15 mph94%29.65 "HgN/A
3:55 pm46 °FLight rain. Broken clouds.9 mph93%29.65 "Hg4 mi
3:25 pm45 °FRain. Broken clouds.15 mph100%29.65 "Hg3 mi
2:55 pm46 °FDrizzle. Broken clouds.16 mph93%29.65 "Hg2 mi
2:25 pm46 °FDrizzle. Mostly cloudy.15 mph93%29.65 "Hg1 mi
1:55 pm46 °FDrizzle. Broken clouds.14 mph100%29.65 "Hg1 mi
1:25 pm46 °FDrizzle. Broken clouds.22 mph93%29.65 "Hg2 mi
12:55 pm46 °FRain. Broken clouds.17 mph93%29.65 "Hg3 mi
12:25 pm50 °FLight rain. Broken clouds.29 mph88%29.65 "Hg4 mi
11:55 am50 °FLight rain. Partly sunny.28 mph88%29.65 "HgN/A
11:25 am50 °FBroken clouds.26 mph88%29.65 "HgN/A
10:55 am50 °FScattered clouds.29 mph88%29.68 "HgN/A
10:25 am50 °FScattered clouds.25 mph88%29.65 "HgN/A
9:55 am48 °FPassing clouds.24 mph94%29.65 "HgN/A
9:25 am48 °FPassing clouds.26 mph94%29.65 "HgN/A
8:55 am48 °FPassing clouds.26 mph94%29.65 "HgN/A
8:25 am48 °FPassing clouds.26 mph94%29.65 "HgN/A
7:55 am48 °FScattered clouds.26 mph94%29.65 "HgN/A
7:25 am48 °FPartly cloudy.25 mph94%29.65 "HgN/A
6:55 am48 °FPassing clouds.26 mph94%29.65 "Hg6 mi
6:25 am48 °FPassing clouds.28 mph94%29.65 "Hg4 mi
5:55 am48 °FLight rain. Passing clouds.28 mph94%29.65 "Hg5 mi
5:25 am48 °FLight rain. Passing clouds.30 mph94%29.65 "Hg5 mi
4:55 am48 °FLight rain. Partly cloudy.28 mph94%29.68 "Hg4 mi
4:25 am48 °FLight rain. Partly cloudy.29 mph94%29.68 "Hg4 mi
3:55 am50 °FLight rain. Passing clouds.28 mph88%29.68 "Hg6 mi
3:25 am50 °FScattered showers. Passing clouds.30 mph88%29.68 "HgN/A
2:55 am50 °FPassing clouds.31 mph88%29.71 "HgN/A
2:25 am48 °FPassing clouds.31 mph94%29.71 "HgN/A
1:55 am48 °FPassing clouds.28 mph94%29.74 "HgN/A
1:25 am50 °FPassing clouds.26 mph88%29.74 "HgN/A
12:55 am50 °FPassing clouds.28 mph88%29.74 "HgN/A
12:25 am50 °FScattered showers. Passing clouds.29 mph94%29.74 "HgN/A
11:55 pm
Tue, Feb 21
52 °FPassing clouds.26 mph88%29.77 "HgN/A
11:25 pm50 °FPassing clouds.21 mph94%29.77 "HgN/A
10:55 pm50 °FPassing clouds.21 mph94%29.77 "HgN/A
10:25 pm50 °FPartly cloudy.17 mph94%29.80 "Hg2 mi
9:55 pm50 °FDrizzle. Mostly cloudy.18 mph94%29.83 "Hg3 mi
9:25 pm50 °FDrizzle. Mostly cloudy.17 mph94%29.83 "Hg3 mi
Weather by CustomWeather, © 2017

See weather overviewHow to use our weather pages